Home   Weather   United Kingdom   Canvey Island   Past weeks
Flag for United Kingdom

Past Weather in Canvey Island, England, United Kingdom — Yesterday and Last 2 Weeks

Currently: 52 °F. Passing clouds. (Weather station: Southend Airport-On-Sea, United Kingdom). See more current weather

Past Weather in Canvey Island — Graph

°F

Canvey Island Temperature Yesterday

Maximum temperature yesterday: 48 °F (at 12:20 pm)
Minimum temperature yesterday: 36 °F (at 10:20 pm)
Average temperature yesterday: 44 °F

High & Low Weather Summary for the Past Weeks

 TemperatureHumidityPressure
High50 °F (Jan 31, 11:50 am)100% (Jan 19, 8:20 am)30.69 "Hg (Jan 19, 8:20 am)
Low21 °F (Jan 17, 6:20 am)53% (Jan 28, 12:50 pm)29.03 "Hg (Jan 16, 11:50 am)
Average37 °F82%30.18 "Hg
* Reported Jan 16 11:50 am — Jan 31 11:50 am, Canvey Island. Weather by CustomWeather, © 2023

Note: Actual official high and low records may vary slightly from our data, if they occured in-between our weather recording intervals... More about our weather records

Canvey Island Weather History for the Previous 24 Hours

Scroll right to see more
 ConditionsComfort  
Time TempWeatherWind HumidityBarometerVisibility
11:50 am
Tue, Jan 31
50 °FPassing clouds.16 mph76%30.18 "HgN/A
11:20 am48 °FPassing clouds.17 mph76%30.21 "HgN/A
10:50 am48 °FPartly sunny.16 mph76%30.21 "HgN/A
10:20 am48 °FScattered clouds.20 mph76%30.21 "HgN/A
9:50 am46 °FScattered clouds.17 mph82%30.21 "HgN/A
9:20 am46 °FScattered clouds.16 mph82%30.21 "HgN/A
8:50 am45 °FScattered clouds.15 mph81%30.21 "HgN/A
8:20 am43 °FScattered clouds.14 mph87%30.21 "HgN/A
7:50 am43 °FSunny.13 mph81%30.21 "Hg10 mi
7:20 am43 °FClear.13 mph81%30.21 "Hg10 mi
6:50 am43 °FClear.13 mph81%30.21 "Hg10 mi
6:20 am43 °FPassing clouds.13 mph81%30.21 "HgN/A
5:50 am43 °FPassing clouds.12 mph81%30.21 "HgN/A
5:20 am43 °FPassing clouds.13 mph81%30.24 "HgN/A
4:50 am43 °FPassing clouds.12 mph76%30.24 "HgN/A
3:50 am41 °FClear.10 mph76%30.24 "Hg10 mi
3:20 am41 °FClear.10 mph76%30.27 "Hg10 mi
2:50 am39 °FClear.12 mph81%30.27 "Hg10 mi
1:50 am39 °FClear.6 mph81%30.27 "Hg10 mi
12:50 am39 °FClear.6 mph81%30.30 "Hg10 mi
11:20 pm
Mon, Jan 30
39 °FClear.6 mph81%30.33 "Hg10 mi
10:20 pm36 °FClear.8 mph87%30.33 "Hg10 mi
9:50 pm39 °FClear.5 mph75%30.33 "Hg10 mi
9:20 pm39 °FClear.7 mph75%30.33 "Hg10 mi
8:50 pm41 °FClear.6 mph70%30.33 "Hg10 mi
8:20 pm41 °FClear.8 mph70%30.33 "Hg10 mi
7:50 pm43 °FClear.8 mph71%30.33 "Hg10 mi
6:50 pm43 °FClear.6 mph71%30.33 "Hg10 mi
6:20 pm43 °FClear.8 mph71%30.33 "Hg10 mi
5:50 pm43 °FPassing clouds.6 mph71%30.33 "HgN/A
5:20 pm43 °FPassing clouds.7 mph71%30.30 "HgN/A
4:50 pm45 °FPassing clouds.5 mph66%30.30 "HgN/A
4:20 pm46 °FPassing clouds.7 mph62%30.30 "HgN/A
3:50 pm46 °FPassing clouds.8 mph62%30.27 "HgN/A
3:20 pm48 °FPassing clouds.9 mph58%30.27 "HgN/A
2:20 pm48 °FPassing clouds.10 mph58%30.24 "HgN/A
1:50 pm48 °FPassing clouds.13 mph58%30.24 "HgN/A
1:20 pm48 °FPassing clouds.13 mph58%30.24 "HgN/A
Weather by CustomWeather, © 2023

See weather overview